SCP
0 0 0 0 0 0 0 0 -0 -0 0 0 -0 0 0 0 -0 0 0 0 0 0 0 0 0 -0 -0 -0 -0 -0 0 -0 -0 -0 0 0 -0 -0 -0 -0 -0 -0 -0 -0 -0 -0 -0 -0 0
0 0 0 0 0 0 0 0 -0 -0 0 -0 0 0 -0 -0 0 0 0 0 0 0 0 0 0 -0 -0 -0 -0 0 0 -0 -0 0 -0 -0 -0 -0 -0 -0 -0 -0 -0 -0 -0 -0 -0 0 0
0 0 0 0 0 0 0 -0 -0 0 0 0 0 0 0 -0 0 -0 0 0 0 0 0 0 0 0 -0 -0 -0 0 -0 0 -0 -0 0 -0 -0 -0 -0 -0 -0 -0 -0 -0 -0 -0 -0 0 0
0 0 0 0 0 0 0 0 -0 0 0 0 0 0 0 0 0 -0 0 0 0 0 -0 -0 0 0 -0 -0 -0 0 0 -0 0 -0 -0 -0 -0 -0 -0 -0 -0 -0 -0 -0 -0 -0 0 0 0
0 0 0 0 0 0 0 0 0 0 0 -0 0 0 0 0 0 0 0 -0 0 0 -0 -0 -0 -0 -0 0 0 0 0 0 -0 -0 -0 -0 -0 -0 -0 -0 -0 -0 -0 -0 -0 -0 0 0 0
0 0 0 0 0 0 0 0 0 0 0 0 0 0 0 0 0 0 0 0 -0 -0 0 -0 -0 -0 -0 -0 -0 -0 0 -0 -0 -0 -0 -0 -0 -0 -0 -0 -0 -0 -0 -0 0 0 0 0 0
0 0 0 0 0 0 0 0 0 0 0 0 0 0 0 0 -0 -0 0 -0 -0 -0 -0 0 0 -0 0 0 0 0 -0 -0 -0 -0 -0 -0 -0 -0 -0 -0 -0 -0 0 0 0 0 0 0 0
0 0 0 0 0 0 0 0 0 0 0 0 0 0 0 -0 0 -0 -0 -0 -0 -0 -0 0 0 0 0 -0 -0 -0 -0 -0 -0 -0 -0 -0 -0 -0 -0 -0 -0 -0 0 0 0 0 0 0 0
0 0 0 0 0 0 0 0 0 0 0 0 0 0 0 -0 0 -0 -0 -0 -0 -0 -0 -0 -0 0 -0 -0 -0 -0 -0 -0 -0 -0 -0 -0 0 0 0 -0 -0 0 0 0 0 0 0 0 0
0 0 0 0 0 0 0 0 0 0 0 0 0 0 0 -0 0 -0 -0 -0 -0 -0 -0 -0 -0 -0 -0 -0 -0 -0 -0 -0 -0 -0 -0 0 -0 0 -0 -0 -0 0 0 0 0 0 0 0 0
0 0 0 0 0 0 0 0 0 0 0 0 0 0 0 0 0 0 0 0 -0 -0 -0 0 -0 -0 -0 -0 0 -0 -0 -0 -0 -0 -0 -0 -0 -0 -0 0 0 0 0 0 0 0 0 0 0
0 0 0 0 0 0 0 0 0 0 0 0 0 0 0 0 0 0 0 0 -0 -0 -0 0 -0 0 -0 0 -0 -0 -0 -0 -0 -0 -0 0 0 0 0 0 0 0 0 0 0 0 0 0 0
0 0 0 0 0 0 0 0 0 0 0 0 0 0 0 0 0 0 0 0 0 0 -0 -0 0 0 0 0 -0 0 0 0 -0 -0 -0 -0 0 0 0 0 0 0 0 0 0 0 0 0 0
0 0 0 0 0 0 0 0 0 0 0 0 0 0 0 0 0 0 0 0 0 0 0 -0 -0 0 0 0 0 0 0 0 0 0 -0 -0 0 0 0 0 0 0 0 0 0 0 0 0 0
0 0 0 0 0 0 0 0 0 0 0 0 0 0 0 0 0 0 0 0 0 0 0 0 0 0 0 0 0 0 0 0 0 0 0 0 0 0 0 0 0 0 0 0 0 0 0 0 0
0 0 0 0 0 0 0 0 0 0 0 0 0 0 0 0 0 0 0 0 0 0 0 0 0 0 0 0 0 0 0 0 0 0 0 0 0 0 0 0 0 0 0 0 0 0 0 0 0
0 0 0 0 0 0 0 0 0 0 0 0 0 0 0 0 0 0 0 0 0 0 0 0 0 0 0 0 0 0 0 0 0 0 0 0 0 0 0 0 0 0 0 0 0 0 0 0 0
0 0 0 0 0 0 0 0 0 0 0 0 0 0 0 0 0 0 0 0 0 0 0 0 0 0 0 0 0 0 0 0 0 0 0 0 0 0 0 0 0 0 0 0 0 0 0 0 0
0 0 0 0 0 0 0 0 0 0 0 0 0 0 0 0 0 0 0 0 0 0 0 0 0 0 0 0 0 0 0 0 0 0 0 0 0 0 0 0 0 0 0 0 0 0 0 0 0
0 0 0 0 0 0 0 0 0 0 0 0 0 0 0 0 0 0 0 0 0 0 0 0 0 0 0 0 0 0 0 0 0 0 0 0 0 0 0 0 0 0 0 0 0 0 0 0 0
0 0 0 0 0 0 0 0 0 0 0 0 0 0 0 0 0 0 0 0 0 0 0 0 0 0 0 0 0 0 0 0 0 0 0 0 0 0 0 0 0 0 0 0 0 0 0 0 0
0 0 0 0 0 0 0 0 0 0 0 0 0 0 0 0 0 0 0 0 0 0 0 0 0 0 0 0 0 0 0 0 0 0 0 0 0 0 0 0 0 0 0 0 0 0 0 0 0
0 0 0 0 0 0 0 0 0 0 0 0 0 0 0 0 0 0 0 0 0 0 0 0 0 0 0 0 0 0 0 0 0 0 0 0 0 0 0 0 0 0 0 0 0 0 0 0 0
0 0 0 0 0 0 0 0 0 0 0 0 0 0 0 0 0 0 0 0 0 0 0 0 0 0 0 0 0 0 0 0 0 0 0 0 0 0 0 0 0 0 0 0 0 0 0 0 0
0 0 0 0 0 0 0 0 0 0 0 0 0 0 0 0 0 0 0 0 0 0 0 0 0 0 0 0 0 0 0 0 0 0 0 0 0 0 0 0 0 0 0 0 0 0 0 0 0
0 0 0 0 0 0 0 0 0 0 0 0 0 0 0 0 0 0 0 0 0 0 0 0 0 0 0 0 0 0 0 0 0 0 0 0 0 0 0 0 0 0 0 0 0 0 0 0 0
0 0 0 0 0 0 0 0 0 0 0 0 0 0 0 0 0 0 0 0 0 0 0 0 0 0 0 0 0 0 0 0 0 0 0 0 0 0 0 0 0 0 0 0 0 0 0 0 0
0 0 0 0 0 0 0 0 0 0 0 0 0 0 0 0 0 0 0 0 0 0 0 0 0 0 0 0 0 0 0 0 0 0 0 0 0 0 0 0 0 0 0 0 0 0 0 0 0
0 0 0 0 0 0 0 0 0 0 0 0 0 0 0 0 0 0 0 0 0 0 0 0 0 0 0 0 0 0 0 0 0 0 0 0 0 0 0 0 0 0 0 0 0 0 0 0 0
0 0 0 0 0 0 0 0 0 0 0 0 0 0 0 0 0 0 0 0 0 0 0 0 0 0 0 0 0 0 0 0 0 0 0 0 0 0 0 0 0 0 0 0 0 0 0 0 0
Wind_Speed_500mb
17 19 29 18 3 6 10 6 13 15 10 14 19 11 25 27 13 16 35 27 19 21 23 24 21 19 20 18 24 24 23 19 22 25 27 27 24 21 20 23 18 23 29 29 28 27 27 27 28
14 17 17 13 5 8 7 16 16 15 24 19 12 5 13 11 17 40 38 30 21 24 25 28 28 25 22 22 26 28 27 28 31 26 25 23 24 20 18 20 21 29 29 31 32 31 30 31 34
12 14 12 4 7 6 8 15 22 21 19 15 8 14 15 14 36 27 38 36 27 24 25 30 30 27 28 28 28 28 31 32 31 32 25 22 22 15 16 21 22 28 28 31 32 31 32 34 37
11 12 12 4 16 10 13 14 38 23 9 6 3 19 16 19 22 28 42 36 30 26 29 31 30 27 27 26 29 28 30 29 27 26 27 22 21 18 17 15 19 24 27 30 30 31 31 32 33
14 13 7 11 12 11 6 17 32 14 21 15 7 13 19 21 19 43 40 35 29 27 30 30 29 25 26 26 27 29 30 24 22 20 20 17 14 14 16 15 16 23 27 27 29 29 29 29 30
12 9 7 11 14 12 13 8 18 18 22 22 7 23 15 19 33 42 38 35 25 28 30 29 28 26 25 26 29 30 30 27 27 23 19 16 12 15 18 17 19 21 23 24 25 27 28 28 28
8 7 13 15 16 11 10 20 24 20 15 15 1 16 21 31 38 39 39 37 28 27 28 28 27 26 25 26 27 26 27 25 23 22 22 18 12 17 18 15 18 19 20 22 22 24 25 26 25
18 11 22 19 14 6 17 15 21 22 15 24 12 10 15 43 51 40 37 41 29 30 27 28 27 24 23 25 25 22 22 21 19 17 16 14 11 11 14 14 15 16 17 19 20 20 21 22 23
21 8 13 25 14 9 23 14 11 9 19 12 10 7 8 54 61 45 41 43 31 27 33 20 26 25 23 23 23 21 19 17 16 15 14 13 11 10 11 13 11 12 13 15 16 15 15 16 18
10 9 14 17 12 6 23 22 19 8 19 11 16 21 32 44 65 54 50 50 45 39 40 32 24 21 22 23 21 20 17 15 14 14 11 11 7 7 10 9 8 9 8 10 11 11 10 10 12
21 27 24 29 14 2 21 17 32 15 15 26 32 39 37 40 62 55 48 47 53 47 45 42 34 28 25 23 23 20 18 16 14 14 10 8 7 4 6 5 6 5 4 4 5 6 9 8 7
9 37 33 34 20 6 13 15 12 27 11 32 36 39 42 42 63 61 52 49 50 44 45 43 46 35 30 26 25 19 20 17 16 13 11 8 6 5 1 2 4 3 2 3 3 4 4 5 6
9 11 32 18 20 19 13 17 21 35 31 19 21 43 41 39 55 58 54 51 42 46 45 47 48 44 37 32 29 23 23 20 18 17 14 12 9 7 6 4 3 3 2 3 3 5 5 6 7
7 26 27 20 15 14 10 15 17 27 34 26 29 42 42 43 48 51 51 51 48 47 49 48 49 48 45 37 34 30 26 23 24 20 18 17 14 12 11 9 8 7 7 6 7 7 8 9 9
12 13 18 20 33 13 18 14 16 37 34 38 40 45 45 44 44 53 56 56 56 52 50 51 50 49 46 41 38 36 30 28 28 25 23 22 20 18 16 15 13 14 11 12 11 8 8 11 14
5 5 11 14 27 12 23 14 26 43 37 39 44 48 53 48 50 51 53 55 60 53 56 53 51 51 49 44 41 41 40 36 33 29 29 26 26 26 23 22 20 21 18 15 14 13 13 18 17
8 8 24 20 41 11 17 11 32 45 51 42 47 51 55 52 51 50 54 51 55 62 63 59 56 52 53 47 43 41 43 42 38 37 35 34 31 31 31 28 26 24 22 20 15 16 18 19 21
12 14 22 27 20 20 19 22 12 26 45 47 47 52 52 53 55 55 57 56 61 59 59 61 59 55 54 52 46 43 43 41 42 43 40 37 37 35 33 33 31 29 23 22 23 21 21 20 21
27 30 31 35 20 20 25 26 26 31 28 38 50 53 55 58 57 57 56 58 57 60 64 63 62 58 58 58 57 53 51 43 40 40 38 40 36 41 36 34 37 32 28 29 27 28 26 26 25
22 27 32 22 20 16 20 33 22 25 36 54 52 48 57 55 53 57 62 64 64 60 63 62 62 63 60 59 56 55 52 46 38 36 34 34 33 31 31 31 31 31 32 30 33 32 31 31 31
12 20 37 23 8 7 5 15 18 25 38 49 53 54 59 61 62 59 59 64 65 64 62 63 60 60 58 58 55 51 44 42 42 41 38 40 37 33 34 32 32 31 32 37 38 36 36 36 37
36 31 30 13 21 13 18 9 22 36 28 22 55 68 63 57 58 57 61 61 67 66 62 62 60 61 57 54 56 55 53 52 47 40 38 41 38 38 40 39 37 38 35 37 39 37 38 40 40
30 35 25 14 19 9 12 6 11 18 33 32 50 61 67 58 53 57 65 61 62 64 66 63 60 61 61 60 58 58 58 53 46 47 44 42 42 41 43 43 41 42 40 36 33 32 33 36 40
6 20 15 13 6 14 24 17 12 18 37 43 42 61 68 66 65 64 59 57 55 61 62 63 63 63 62 64 63 62 61 58 55 51 48 43 44 44 43 42 44 45 44 38 39 41 42 40 40
13 22 7 4 4 13 20 17 17 15 20 21 30 57 68 69 64 64 62 63 58 61 63 64 65 66 65 68 70 68 63 60 59 54 52 49 46 48 47 46 47 48 48 47 50 52 49 47 47
27 23 10 14 12 7 7 19 12 39 36 23 34 23 26 70 69 72 66 64 68 65 65 63 63 66 67 69 70 68 63 62 62 58 47 48 52 50 46 46 45 45 45 47 50 51 56 49 48
18 24 8 4 1 6 10 9 16 17 15 15 29 30 27 29 46 54 62 63 61 60 57 59 62 66 68 70 70 68 67 64 62 59 48 48 49 47 43 43 43 42 43 48 44 48 50 45 41
12 7 5 8 12 10 8 8 11 22 23 15 15 32 29 27 30 37 45 49 52 55 57 60 61 57 63 66 65 64 61 62 62 56 51 53 48 47 48 42 38 42 45 46 46 50 40 45 45
11 11 14 9 8 9 7 12 11 16 17 21 18 41 44 37 32 30 36 45 49 48 46 47 50 53 56 54 52 51 51 48 46 43 42 42 44 48 47 47 47 49 47 45 48 45 41 39 40
25 23 17 3 9 3 4 10 3 12 13 17 23 24 31 41 40 38 38 38 38 38 40 39 38 39 41 40 37 38 35 33 34 39 37 36 37 37 39 40 42 45 44 42 44 44 39 37 37
Wind_Direction_500mb
334 350 327 306 276 216 128 80 77 92 117 57 66 23 84 54 28 117 129 165 168 140 125 112 113 109 101 111 131 127 106 100 87 86 90 96 90 79 68 65 71 79 75 72 70 71 72 73 73
331 341 325 279 246 257 91 130 126 78 94 93 75 355 66 85 91 132 131 136 151 125 121 120 119 109 98 108 125 133 132 112 107 98 91 102 93 80 76 69 83 82 79 75 72 70 70 73 78
314 330 297 304 269 6 93 150 111 103 118 128 105 29 38 96 124 128 151 151 139 136 128 124 122 110 102 106 113 129 135 132 125 111 99 102 106 105 84 76 87 85 81 76 74 70 71 78 86
331 274 249 246 270 58 42 97 113 129 112 122 334 90 87 126 126 163 151 144 141 149 135 130 125 117 108 107 110 119 129 133 131 128 123 113 108 105 93 86 87 89 82 77 72 68 74 80 86
311 278 272 219 259 102 51 90 137 161 151 165 218 106 103 137 142 147 151 144 153 147 140 133 130 122 113 110 114 120 129 135 144 144 140 129 109 96 102 103 96 87 83 78 73 71 78 81 84
300 271 265 255 213 111 122 151 156 179 158 141 164 109 128 174 152 150 148 146 158 149 145 141 136 130 122 117 119 124 126 123 125 129 144 140 116 105 110 111 98 90 83 80 77 75 76 77 80
254 267 258 260 293 123 156 167 188 183 148 160 192 120 146 159 159 158 149 142 176 159 149 147 145 140 134 125 122 124 123 121 117 114 120 123 127 96 99 108 100 96 86 80 77 75 76 75 77
283 260 257 254 226 251 120 172 198 197 150 123 167 154 164 177 158 164 159 148 191 171 156 155 151 149 145 140 131 131 121 119 118 116 116 114 112 110 105 112 107 97 84 76 72 72 73 74 70
288 277 231 250 214 164 140 174 211 152 125 124 165 36 187 181 158 166 167 156 190 183 155 170 159 159 159 156 148 141 140 131 124 121 118 123 113 108 99 101 107 95 86 81 77 76 74 77 74
199 239 250 266 259 258 161 197 172 149 145 145 149 116 163 174 167 172 177 168 183 184 168 171 167 175 173 168 164 158 154 147 141 135 132 120 119 83 88 98 106 99 86 81 77 80 74 69 64
196 233 232 290 287 340 149 203 163 198 195 195 177 164 182 180 174 179 182 181 199 198 181 177 168 193 188 180 179 172 175 170 163 160 150 151 139 134 120 94 93 88 83 98 74 67 58 59 46
284 229 249 245 217 208 190 191 187 198 215 211 196 193 194 191 183 185 186 189 208 201 198 190 174 194 199 195 189 190 193 187 188 184 178 183 174 180 82 90 54 58 48 45 352 21 22 25 21
243 260 234 267 182 217 226 220 195 208 212 179 179 190 201 196 193 193 190 195 214 203 206 205 192 191 199 202 192 207 207 205 204 204 202 207 212 212 222 241 269 310 327 315 324 321 329 338 341
261 314 244 225 216 217 205 225 197 234 219 210 176 192 199 204 201 197 198 195 210 212 213 208 210 204 207 204 200 207 219 213 218 223 218 223 229 229 236 246 255 265 285 304 304 313 321 321 323
247 349 285 211 206 217 213 265 203 222 224 203 192 196 202 207 201 203 201 198 206 213 215 218 211 215 216 215 210 218 220 227 228 232 238 235 243 246 247 253 256 262 264 276 280 285 298 305 314
152 142 238 210 215 194 168 239 219 231 227 209 198 199 199 207 207 206 205 208 204 209 213 221 217 214 219 219 221 221 227 232 236 238 246 245 246 250 253 257 262 265 269 266 275 294 312 322 320
214 195 224 225 198 150 188 235 242 230 215 208 209 208 204 201 204 209 205 214 212 210 215 217 221 214 218 225 224 226 230 237 241 242 244 252 247 247 253 254 260 260 268 278 286 283 284 291 293
185 202 210 222 182 192 195 240 273 209 206 202 220 209 207 202 207 206 207 207 211 214 219 216 221 218 216 221 229 235 234 235 237 244 249 246 253 253 250 252 253 255 264 264 265 269 276 282 288
205 196 214 211 189 184 211 227 236 206 211 212 219 214 207 209 215 213 210 209 214 207 217 211 216 216 217 217 221 226 238 241 238 243 247 253 251 253 252 250 252 252 260 258 257 261 270 276 285
192 196 224 221 164 165 213 238 227 217 206 211 215 221 208 213 210 218 212 209 211 213 212 215 214 217 216 222 226 229 236 244 248 251 249 249 257 244 253 254 255 255 251 252 256 263 269 275 283
205 229 211 220 134 318 343 273 227 229 210 210 216 219 219 217 211 211 211 212 212 214 213 217 214 216 220 223 224 228 234 239 241 239 240 236 245 248 248 255 251 249 244 251 255 261 268 275 279
215 220 253 208 155 211 160 270 205 214 212 193 208 217 218 215 211 207 210 216 216 217 218 218 215 216 223 223 223 227 227 229 240 243 244 246 251 248 250 251 249 252 253 255 260 265 266 267 270
229 210 253 207 190 127 206 244 222 194 209 211 208 211 219 215 206 204 211 223 222 217 217 219 218 219 219 225 228 230 235 244 243 247 249 249 251 249 245 246 249 252 256 260 266 269 272 268 268
18 177 18 340 284 236 200 194 226 204 194 217 213 210 213 216 216 215 212 222 222 223 221 222 222 222 222 224 231 234 236 243 243 243 246 246 249 250 246 246 251 256 258 257 266 268 261 263 266
142 122 116 158 253 231 187 207 228 186 199 195 201 211 214 213 212 215 212 210 219 218 221 223 223 226 226 225 230 236 238 240 245 247 240 239 240 235 242 245 253 256 258 259 259 261 260 263 263
199 179 160 172 195 208 341 222 235 231 243 232 215 189 185 212 212 211 207 207 213 218 219 223 227 227 226 227 230 233 238 238 241 244 240 238 240 245 252 250 248 257 256 257 259 263 263 258 261
192 234 163 111 149 83 208 280 313 238 230 197 178 198 205 172 187 185 193 206 214 221 222 223 226 228 229 231 231 231 233 237 237 239 235 237 242 246 245 248 253 258 261 261 262 265 268 263 261
243 266 207 237 151 222 227 245 223 214 204 186 174 183 187 196 200 205 210 216 222 225 227 227 227 226 226 227 230 233 236 235 237 243 237 241 243 245 253 250 246 247 249 253 255 262 261 263 265
190 217 215 268 154 193 144 250 212 226 171 174 185 205 202 204 207 202 205 210 213 213 214 215 218 218 220 223 227 230 233 234 235 239 244 244 245 247 248 250 253 254 261 255 253 257 258 264 255
244 201 200 236 194 149 221 268 79 94 101 135 149 170 193 200 201 202 203 203 199 197 199 202 203 204 205 210 213 218 221 223 229 234 242 247 249 251 253 255 253 253 255 253 255 255 249 250 261
Wind_Speed_850mb
17 19 29 18 3 6 10 6 13 15 10 14 19 11 25 27 13 16 35 27 19 21 23 24 21 19 20 18 24 24 23 19 22 25 27 27 24 21 20 23 18 23 29 29 28 27 27 27 28
14 17 17 13 5 8 7 16 16 15 24 19 12 5 13 11 17 40 38 30 21 24 25 28 28 25 22 22 26 28 27 28 31 26 25 23 24 20 18 20 21 29 29 31 32 31 30 31 34
12 14 12 4 7 6 8 15 22 21 19 15 8 14 15 14 36 27 38 36 27 24 25 30 30 27 28 28 28 28 31 32 31 32 25 22 22 15 16 21 22 28 28 31 32 31 32 34 37
11 12 12 4 16 10 13 14 38 23 9 6 3 19 16 19 22 28 42 36 30 26 29 31 30 27 27 26 29 28 30 29 27 26 27 22 21 18 17 15 19 24 27 30 30 31 31 32 33
14 13 7 11 12 11 6 17 32 14 21 15 7 13 19 21 19 43 40 35 29 27 30 30 29 25 26 26 27 29 30 24 22 20 20 17 14 14 16 15 16 23 27 27 29 29 29 29 30
12 9 7 11 14 12 13 8 18 18 22 22 7 23 15 19 33 42 38 35 25 28 30 29 28 26 25 26 29 30 30 27 27 23 19 16 12 15 18 17 19 21 23 24 25 27 28 28 28
8 7 13 15 16 11 10 20 24 20 15 15 1 16 21 31 38 39 39 37 28 27 28 28 27 26 25 26 27 26 27 25 23 22 22 18 12 17 18 15 18 19 20 22 22 24 25 26 25
18 11 22 19 14 6 17 15 21 22 15 24 12 10 15 43 51 40 37 41 29 30 27 28 27 24 23 25 25 22 22 21 19 17 16 14 11 11 14 14 15 16 17 19 20 20 21 22 23
21 8 13 25 14 9 23 14 11 9 19 12 10 7 8 54 61 45 41 43 31 27 33 20 26 25 23 23 23 21 19 17 16 15 14 13 11 10 11 13 11 12 13 15 16 15 15 16 18
10 9 14 17 12 6 23 22 19 8 19 11 16 21 32 44 65 54 50 50 45 39 40 32 24 21 22 23 21 20 17 15 14 14 11 11 7 7 10 9 8 9 8 10 11 11 10 10 12
21 27 24 29 14 2 21 17 32 15 15 26 32 39 37 40 62 55 48 47 53 47 45 42 34 28 25 23 23 20 18 16 14 14 10 8 7 4 6 5 6 5 4 4 5 6 9 8 7
9 37 33 34 20 6 13 15 12 27 11 32 36 39 42 42 63 61 52 49 50 44 45 43 46 35 30 26 25 19 20 17 16 13 11 8 6 5 1 2 4 3 2 3 3 4 4 5 6
9 11 32 18 20 19 13 17 21 35 31 19 21 43 41 39 55 58 54 51 42 46 45 47 48 44 37 32 29 23 23 20 18 17 14 12 9 7 6 4 3 3 2 3 3 5 5 6 7
7 26 27 20 15 14 10 15 17 27 34 26 29 42 42 43 48 51 51 51 48 47 49 48 49 48 45 37 34 30 26 23 24 20 18 17 14 12 11 9 8 7 7 6 7 7 8 9 9
12 13 18 20 33 13 18 14 16 37 34 38 40 45 45 44 44 53 56 56 56 52 50 51 50 49 46 41 38 36 30 28 28 25 23 22 20 18 16 15 13 14 11 12 11 8 8 11 14
5 5 11 14 27 12 23 14 26 43 37 39 44 48 53 48 50 51 53 55 60 53 56 53 51 51 49 44 41 41 40 36 33 29 29 26 26 26 23 22 20 21 18 15 14 13 13 18 17
8 8 24 20 41 11 17 11 32 45 51 42 47 51 55 52 51 50 54 51 55 62 63 59 56 52 53 47 43 41 43 42 38 37 35 34 31 31 31 28 26 24 22 20 15 16 18 19 21
12 14 22 27 20 20 19 22 12 26 45 47 47 52 52 53 55 55 57 56 61 59 59 61 59 55 54 52 46 43 43 41 42 43 40 37 37 35 33 33 31 29 23 22 23 21 21 20 21
27 30 31 35 20 20 25 26 26 31 28 38 50 53 55 58 57 57 56 58 57 60 64 63 62 58 58 58 57 53 51 43 40 40 38 40 36 41 36 34 37 32 28 29 27 28 26 26 25
22 27 32 22 20 16 20 33 22 25 36 54 52 48 57 55 53 57 62 64 64 60 63 62 62 63 60 59 56 55 52 46 38 36 34 34 33 31 31 31 31 31 32 30 33 32 31 31 31
12 20 37 23 8 7 5 15 18 25 38 49 53 54 59 61 62 59 59 64 65 64 62 63 60 60 58 58 55 51 44 42 42 41 38 40 37 33 34 32 32 31 32 37 38 36 36 36 37
36 31 30 13 21 13 18 9 22 36 28 22 55 68 63 57 58 57 61 61 67 66 62 62 60 61 57 54 56 55 53 52 47 40 38 41 38 38 40 39 37 38 35 37 39 37 38 40 40
30 35 25 14 19 9 12 6 11 18 33 32 50 61 67 58 53 57 65 61 62 64 66 63 60 61 61 60 58 58 58 53 46 47 44 42 42 41 43 43 41 42 40 36 33 32 33 36 40
6 20 15 13 6 14 24 17 12 18 37 43 42 61 68 66 65 64 59 57 55 61 62 63 63 63 62 64 63 62 61 58 55 51 48 43 44 44 43 42 44 45 44 38 39 41 42 40 40
13 22 7 4 4 13 20 17 17 15 20 21 30 57 68 69 64 64 62 63 58 61 63 64 65 66 65 68 70 68 63 60 59 54 52 49 46 48 47 46 47 48 48 47 50 52 49 47 47
27 23 10 14 12 7 7 19 12 39 36 23 34 23 26 70 69 72 66 64 68 65 65 63 63 66 67 69 70 68 63 62 62 58 47 48 52 50 46 46 45 45 45 47 50 51 56 49 48
18 24 8 4 1 6 10 9 16 17 15 15 29 30 27 29 46 54 62 63 61 60 57 59 62 66 68 70 70 68 67 64 62 59 48 48 49 47 43 43 43 42 43 48 44 48 50 45 41
12 7 5 8 12 10 8 8 11 22 23 15 15 32 29 27 30 37 45 49 52 55 57 60 61 57 63 66 65 64 61 62 62 56 51 53 48 47 48 42 38 42 45 46 46 50 40 45 45
11 11 14 9 8 9 7 12 11 16 17 21 18 41 44 37 32 30 36 45 49 48 46 47 50 53 56 54 52 51 51 48 46 43 42 42 44 48 47 47 47 49 47 45 48 45 41 39 40
25 23 17 3 9 3 4 10 3 12 13 17 23 24 31 41 40 38 38 38 38 38 40 39 38 39 41 40 37 38 35 33 34 39 37 36 37 37 39 40 42 45 44 42 44 44 39 37 37
Wind_Direction_850mb
334 350 327 306 276 216 128 80 77 92 117 57 66 23 84 54 28 117 129 165 168 140 125 112 113 109 101 111 131 127 106 100 87 86 90 96 90 79 68 65 71 79 75 72 70 71 72 73 73
331 341 325 279 246 257 91 130 126 78 94 93 75 355 66 85 91 132 131 136 151 125 121 120 119 109 98 108 125 133 132 112 107 98 91 102 93 80 76 69 83 82 79 75 72 70 70 73 78
314 330 297 304 269 6 93 150 111 103 118 128 105 29 38 96 124 128 151 151 139 136 128 124 122 110 102 106 113 129 135 132 125 111 99 102 106 105 84 76 87 85 81 76 74 70 71 78 86
331 274 249 246 270 58 42 97 113 129 112 122 334 90 87 126 126 163 151 144 141 149 135 130 125 117 108 107 110 119 129 133 131 128 123 113 108 105 93 86 87 89 82 77 72 68 74 80 86
311 278 272 219 259 102 51 90 137 161 151 165 218 106 103 137 142 147 151 144 153 147 140 133 130 122 113 110 114 120 129 135 144 144 140 129 109 96 102 103 96 87 83 78 73 71 78 81 84
300 271 265 255 213 111 122 151 156 179 158 141 164 109 128 174 152 150 148 146 158 149 145 141 136 130 122 117 119 124 126 123 125 129 144 140 116 105 110 111 98 90 83 80 77 75 76 77 80
254 267 258 260 293 123 156 167 188 183 148 160 192 120 146 159 159 158 149 142 176 159 149 147 145 140 134 125 122 124 123 121 117 114 120 123 127 96 99 108 100 96 86 80 77 75 76 75 77
283 260 257 254 226 251 120 172 198 197 150 123 167 154 164 177 158 164 159 148 191 171 156 155 151 149 145 140 131 131 121 119 118 116 116 114 112 110 105 112 107 97 84 76 72 72 73 74 70
288 277 231 250 214 164 140 174 211 152 125 124 165 36 187 181 158 166 167 156 190 183 155 170 159 159 159 156 148 141 140 131 124 121 118 123 113 108 99 101 107 95 86 81 77 76 74 77 74
199 239 250 266 259 258 161 197 172 149 145 145 149 116 163 174 167 172 177 168 183 184 168 171 167 175 173 168 164 158 154 147 141 135 132 120 119 83 88 98 106 99 86 81 77 80 74 69 64
196 233 232 290 287 340 149 203 163 198 195 195 177 164 182 180 174 179 182 181 199 198 181 177 168 193 188 180 179 172 175 170 163 160 150 151 139 134 120 94 93 88 83 98 74 67 58 59 46
284 229 249 245 217 208 190 191 187 198 215 211 196 193 194 191 183 185 186 189 208 201 198 190 174 194 199 195 189 190 193 187 188 184 178 183 174 180 82 90 54 58 48 45 352 21 22 25 21
243 260 234 267 182 217 226 220 195 208 212 179 179 190 201 196 193 193 190 195 214 203 206 205 192 191 199 202 192 207 207 205 204 204 202 207 212 212 222 241 269 310 327 315 324 321 329 338 341
261 314 244 225 216 217 205 225 197 234 219 210 176 192 199 204 201 197 198 195 210 212 213 208 210 204 207 204 200 207 219 213 218 223 218 223 229 229 236 246 255 265 285 304 304 313 321 321 323
247 349 285 211 206 217 213 265 203 222 224 203 192 196 202 207 201 203 201 198 206 213 215 218 211 215 216 215 210 218 220 227 228 232 238 235 243 246 247 253 256 262 264 276 280 285 298 305 314
152 142 238 210 215 194 168 239 219 231 227 209 198 199 199 207 207 206 205 208 204 209 213 221 217 214 219 219 221 221 227 232 236 238 246 245 246 250 253 257 262 265 269 266 275 294 312 322 320
214 195 224 225 198 150 188 235 242 230 215 208 209 208 204 201 204 209 205 214 212 210 215 217 221 214 218 225 224 226 230 237 241 242 244 252 247 247 253 254 260 260 268 278 286 283 284 291 293
185 202 210 222 182 192 195 240 273 209 206 202 220 209 207 202 207 206 207 207 211 214 219 216 221 218 216 221 229 235 234 235 237 244 249 246 253 253 250 252 253 255 264 264 265 269 276 282 288
205 196 214 211 189 184 211 227 236 206 211 212 219 214 207 209 215 213 210 209 214 207 217 211 216 216 217 217 221 226 238 241 238 243 247 253 251 253 252 250 252 252 260 258 257 261 270 276 285
192 196 224 221 164 165 213 238 227 217 206 211 215 221 208 213 210 218 212 209 211 213 212 215 214 217 216 222 226 229 236 244 248 251 249 249 257 244 253 254 255 255 251 252 256 263 269 275 283
205 229 211 220 134 318 343 273 227 229 210 210 216 219 219 217 211 211 211 212 212 214 213 217 214 216 220 223 224 228 234 239 241 239 240 236 245 248 248 255 251 249 244 251 255 261 268 275 279
215 220 253 208 155 211 160 270 205 214 212 193 208 217 218 215 211 207 210 216 216 217 218 218 215 216 223 223 223 227 227 229 240 243 244 246 251 248 250 251 249 252 253 255 260 265 266 267 270
229 210 253 207 190 127 206 244 222 194 209 211 208 211 219 215 206 204 211 223 222 217 217 219 218 219 219 225 228 230 235 244 243 247 249 249 251 249 245 246 249 252 256 260 266 269 272 268 268
18 177 18 340 284 236 200 194 226 204 194 217 213 210 213 216 216 215 212 222 222 223 221 222 222 222 222 224 231 234 236 243 243 243 246 246 249 250 246 246 251 256 258 257 266 268 261 263 266
142 122 116 158 253 231 187 207 228 186 199 195 201 211 214 213 212 215 212 210 219 218 221 223 223 226 226 225 230 236 238 240 245 247 240 239 240 235 242 245 253 256 258 259 259 261 260 263 263
199 179 160 172 195 208 341 222 235 231 243 232 215 189 185 212 212 211 207 207 213 218 219 223 227 227 226 227 230 233 238 238 241 244 240 238 240 245 252 250 248 257 256 257 259 263 263 258 261
192 234 163 111 149 83 208 280 313 238 230 197 178 198 205 172 187 185 193 206 214 221 222 223 226 228 229 231 231 231 233 237 237 239 235 237 242 246 245 248 253 258 261 261 262 265 268 263 261
243 266 207 237 151 222 227 245 223 214 204 186 174 183 187 196 200 205 210 216 222 225 227 227 227 226 226 227 230 233 236 235 237 243 237 241 243 245 253 250 246 247 249 253 255 262 261 263 265
190 217 215 268 154 193 144 250 212 226 171 174 185 205 202 204 207 202 205 210 213 213 214 215 218 218 220 223 227 230 233 234 235 239 244 244 245 247 248 250 253 254 261 255 253 257 258 264 255
244 201 200 236 194 149 221 268 79 94 101 135 149 170 193 200 201 202 203 203 199 197 199 202 203 204 205 210 213 218 221 223 229 234 242 247 249 251 253 255 253 253 255 253 255 255 249 250 261